C/2020 K6 ( Rankin )

Japanese version
Home page
Updated on September 18, 2021

---------------------------------------------------------------------

* Profile

Discovery Date May 26, 2020
Magnitude 20.5 mag
Discoverer David Rankin (Mount Lemmon Survey)

* Pictures

* Orbital Elements

Epoch 2021 Sept. 23.0 TT = JDT 2459480.5
T 2021 Sept. 15.45872 TT                                Rudenko
q   5.8683435            (2000.0)            P               Q
z  -0.0005188      Peri.   44.29609     +0.10938564     -0.41329924
 +/-0.0000028      Node   291.52616     -0.93628675     +0.26254062
e   1.0030448      Incl.  103.64327     +0.33376924     +0.87192669
From 93 observations 2020 May 26-2021 Sept. 1, mean residual 0".5.

* Magnitudes Graph

        m1 = 8.0 + 5 log d + 10.0 log r

---------------------------------------------------------------------

The orbital elements are published on M.P.E.C. 2021-R75.
The magnitudes graphs are made with Comet for Windows.

---------------------------------------------------------------------

Copyright(C) Seiichi Yoshida (comet@aerith.net). All rights reserved.